METEOR 2-5 DEB, 35506

Orbit data source: Space-Track

METEOR 2-5 DEB, 35506 is space debris in LEO originally from a launch on Wed, 31 Oct 1979 UTC launched from the Plesetsk Missile And Space Complex (PKMTR). Debris objects in space refer to the collection of defunct objects orbiting the Earth. Examples of debris include non-operational satellites, rocket bodies, and fragments generated from explosions, collisions, or faulty payload assembly.

Loading next visibility...
Identifier
35506, 1979-095Z
Orbit
LEO
Country
Flag of CISCIS
Related business
Manufacturer
Unknown
Mission
Spacecraft
Bus & Motor
Unknown
Mass
Unknown
Launch date (UTC)
1979-10-31 (47 years ago)
Launch vehicle
Unknown
Launch site
Plesetsk Missile And Space Complex (PKMTR)
Object type
Payload
Rocket body
Debris
Shape & HBR
Unknown shape, 0.1 m
Radar Cross Section
Small (<0.1 m²)

Expand to show TLE details & history
Last TLE update: 4 days ago

TLE from 4 days ago
0 METEOR 2-5 DEB
1 35506U 79095Z   26169.83413061  .00012564  00000-0  19259-2 0  9995
2 35506  81.1837  12.5056 0009207   2.5119 357.6131 14.73555953289860
Epoch: 2026-06-18T20:01Z
TLE epoch observation values (Epoch: 2026-06-18T20:01:08.884Z)
Latitude
-0.00004°
Longitude
165.1468°
Altitude
646.256 km
Speed
7.538 km/s
True Right ascension
00h 50m 01s
True Declination
0° 00' 00"
Sunlit
Object was in daylight at epoch
Visualization orbit readout
Latitude
Unknown
Longitude
Unknown
Altitude
Unknown
Speed
Unknown
Apparent Right ascension
Unknown
Apparent Declination
Unknown
Sunlit
N/A
Visualization observer readout
Local Sidereal Time
00:51:26
Azimuth
Unknown
Elevation
Unknown
Doppler factor
Unknown
Orbital elements
Apogee altitude
653.3 km
Perigee altitude
640.364 km
Semi-major axis
7,024.969 km
Eccentricity
0.00092
Inclination
81.1837°
RAAN
12.5056°
Arg. of periapsis
2.5119°
True anomaly
357.6087°
Mean anomaly
357.6131°
Eccentric anomaly
357.6109°
Mean motion
3.68618 °/min
Orbital period
97.66 mins
BSTAR
0.0019259
Loading maneuver chart data...
Computing Atmospheric mass density...

Documentation

Showing up to 5 results
|